Weather History for Anderson, SC

Change the Weather History Date:

Friday, November 29, 2013

  Actual Average Record
Temperature  
Mean Temperature 41 °F -  
Max Temperature 57 °F 59 °F 76 °F (1949)
Min Temperature 25 °F 38 °F 18 °F (1955)
Degree Days  
Heating Degree Days 24    
Moisture  
Dew Point 25 °F    
Average Humidity 61    
Maximum Humidity 96    
Minimum Humidity 23    
Precipitation  
Precipitation 0.00 in - - ()
Sea Level Pressure  
Sea Level Pressure 30.50 in    
Wind  
Wind Speed 2 mph (ENE)    
Max Wind Speed 7 mph    
Max Gust Speed -    
Visibility 10 miles    
Events      
Averages and records for this station are not official NWS values.
T = Trace of Precipitation, MM = Missing Value Source: NWS Daily Summary

Daily Weather History Graph

Daily Weather History Graph

Search for Another Location

Airport:

Trip Planner

Search our weather history database for the weather conditions in past years. The results will help you decide how hot, cold, wet, or windy it might be!

Date:

Astronomy

Nov. 29, 2013 Rise Set
Actual Time 7:17 AM EST 5:20 PM EST
Civil Twilight 6:50 AM EST 5:48 PM EST
Nautical Twilight 6:19 AM EST 6:19 PM EST
Astronomical Twilight 5:48 AM EST 6:49 PM EST
Moon 3:30 AM EST (11/29) 2:57 PM EST (11/29)
Length of Visible Light 10h 57m
Length of Day
10h 02m
Waning Crescent, 14% of the Moon is Illuminated
Nov 29
Waning Crescent
Dec 2
New
Dec 9
First Quarter
Dec 17
Full
Dec 25
Last Quarter

Hourly Weather History & Observations

Time (EST) Temp. Windchill Dew Point Humidity Pressure Visibility Wind Dir Wind Speed Gust Speed Precip Events Conditions
12:56 AM 28.0 °F - 25.0 °F 88% 30.48 in 10.0 mi Calm Calm - N/A   Clear
1:56 AM 27.0 °F - 25.0 °F 92% 30.47 in 10.0 mi Calm Calm - N/A   Clear
2:56 AM 27.0 °F - 24.1 °F 89% 30.48 in 10.0 mi Calm Calm - N/A   Clear
3:56 AM 26.1 °F - 25.0 °F 96% 30.47 in 10.0 mi Calm Calm - N/A   Clear
4:56 AM 26.1 °F - 25.0 °F 96% 30.48 in 10.0 mi Calm Calm - N/A   Clear
5:56 AM 26.1 °F - 24.1 °F 92% 30.48 in 10.0 mi Calm Calm - N/A   Clear
6:56 AM 25.0 °F - 23.0 °F 92% 30.49 in 10.0 mi Calm Calm - N/A   Clear
7:56 AM 28.0 °F - 26.1 °F 92% 30.51 in 10.0 mi Calm Calm - N/A   Clear
8:56 AM 36.0 °F 33.3 °F 28.9 °F 76% 30.52 in 10.0 mi NE 3.5 mph - N/A   Clear
9:56 AM 43.0 °F - 28.0 °F 56% 30.53 in 10.0 mi Calm Calm - N/A   Clear
10:56 AM 48.0 °F - 26.1 °F 42% 30.53 in 10.0 mi East 6.9 mph - N/A   Clear
11:56 AM 51.1 °F - 24.1 °F 35% 30.52 in 10.0 mi Variable 5.8 mph - N/A   Clear
12:56 PM 53.1 °F - 21.9 °F 30% 30.49 in 10.0 mi SSE 3.5 mph - N/A   Clear
1:56 PM 57.0 °F - 21.0 °F 25% 30.47 in 10.0 mi East 3.5 mph - N/A   Clear
2:56 PM 55.9 °F - 18.0 °F 23% 30.45 in 10.0 mi NE 5.8 mph - N/A   Clear
3:56 PM 55.9 °F - 18.0 °F 23% 30.47 in 10.0 mi ESE 4.6 mph - N/A   Clear
4:56 PM 53.1 °F - 21.0 °F 29% 30.47 in 10.0 mi East 5.8 mph - N/A   Clear
5:56 PM 48.0 °F - 24.1 °F 39% 30.50 in 10.0 mi ENE 4.6 mph - N/A   Clear
6:56 PM 42.1 °F 38.4 °F 27.0 °F 55% 30.53 in 10.0 mi ENE 5.8 mph - N/A   Clear
7:56 PM 43.0 °F 40.3 °F 27.0 °F 53% 30.53 in 10.0 mi ENE 4.6 mph - N/A   Clear
8:56 PM 42.1 °F 38.4 °F 27.0 °F 55% 30.54 in 10.0 mi ENE 5.8 mph - N/A   Clear
9:56 PM 41.0 °F 36.4 °F 28.0 °F 60% 30.55 in 10.0 mi ENE 6.9 mph - N/A   Clear
10:56 PM 39.9 °F 35.1 °F 27.0 °F 60% 30.55 in 10.0 mi ENE 6.9 mph - N/A   Clear
11:56 PM 39.0 °F 34.0 °F 27.0 °F 62% 30.56 in 10.0 mi NE 6.9 mph - N/A   Clear